Tracking 31027 objects as of 19-Jul-2025
HD Live streaming from Space Station
objects crossing your sky now

GAOFEN 13

Track GAOFEN 13 now!


NORAD ID: 46610
Int'l Code: 2020-071A
Perigee: 35,710.1 km
Apogee: 35,879.4 km
Inclination: 0.5 °
Period: 1,436.1 minutes
Semi major axis: 42165 km
RCS: Unknown
Launch date: October 11, 2020
Source: People's Republic of China (PRC)
Launch site: Xichang Space Center, China (XSC)
Your satellite tracking list
Your tracking list is empty




NASA's NSSDC Master Catalog

Two Line Element Set (TLE):
1 46610U 20071A   25199.63559045 -.00000357  00000-0  00000-0 0  9996
2 46610   0.5387  85.5845 0020078 122.6752  75.2464  1.00268305 17572
Source of the keplerian elements: AFSPC